FW1757 Weather Reports


Display with metric or nautical units.
time (UTC)temp
F
wind
direction
speed
MPH
gust
MPH
rain 1hr
in
rain 24hr
in
rain mn
in
humidity
%
barometer
mb
20260906203547 55 222 0.0 0.0 0.00 0.23 0.23 1 1015.4
20260906203046 55 215 0.0 0.0 0.00 0.23 0.23 1 1015.4
20260906202544 55 215 0.0 0.0 0.00 0.23 0.23 1 1015.5
20260906202046 55 215 0.0 0.0 0.00 0.23 0.23 1 1015.3
20260906201605 55 215 0.0 0.0 0.00 0.23 0.23 1 1015.3
20260906201039 55 215 0.0 0.0 0.00 0.23 0.23 1 1015.4
20260906200538 55 215 0.0 0.0 0.00 0.23 0.23 1 1015.5
20260906200037 55 215 0.0 0.0 0.00 0.23 0.23 1 1015.4
20260906195536 55 215 0.0 0.0 0.00 0.23 0.23 1 1015.4
20260906195034 55 215 0.0 0.0 0.00 0.23 0.23 1 1015.5
20260906194540 55 215 0.0 0.0 0.00 0.23 0.23 1 1015.5
20260906194032 55 210 0.0 0.0 0.00 0.23 0.23 1 1015.4
20260906193530 55 210 0.0 0.0 0.00 0.23 0.23 1 1015.5
20260906193028 55 210 0.0 0.0 0.00 0.23 0.23 1 1015.5
20260906192528 55 210 0.0 0.0 0.00 0.23 0.23 1 1015.5
20260906192025 55 210 0.0 0.0 0.00 0.23 0.23 1 1015.6
20260906191524 55 211 0.0 0.0 0.00 0.23 0.23 1 1015.6
20260906191022 55 211 0.0 0.0 0.00 0.23 0.23 1 1015.6
20260906190521 55 211 0.0 0.0 0.00 0.23 0.23 1 1015.7
20260906190020 55 211 0.0 0.0 0.00 0.23 0.23 1 1015.5
20260906185520 55 211 0.0 0.0 0.00 0.23 0.23 1 1015.5
20260906185016 54 211 0.0 0.0 0.00 0.23 0.23 1 1015.6
20260906184515 54 212 0.0 0.0 0.00 0.23 0.23 1 1015.5
20260906184013 54 212 0.0 0.0 0.00 0.23 0.23 1 1015.6
20260906183512 54 212 0.0 0.0 0.00 0.23 0.23 1 1015.7
20260906183023 54 212 0.0 0.0 0.00 0.23 0.23 1 1015.7
20260906182509 54 212 0.0 0.0 0.00 0.23 0.23 1 1015.7
20260906182009 54 212 0.0 0.0 0.00 0.23 0.23 1 1015.7
20260906181516 54 212 0.0 0.0 0.00 0.23 0.23 1 1015.6
20260906181004 54 212 0.0 0.0 0.00 0.23 0.23 1 1015.7
20260906180504 54 211 0.0 0.0 0.00 0.23 0.23 1 1015.6
20260906180002 54 212 0.0 0.0 0.00 0.23 0.23 1 1015.6
20260906175601 54 212 0.0 0.0 0.00 0.23 0.23 1 1015.6
20260906175101 54 211 0.0 0.0 0.00 0.23 0.23 1 1015.6
20260906174605 54 211 0.0 0.0 0.00 0.23 0.23 1 1015.6
20260906174057 54 212 0.0 0.0 0.00 0.23 0.23 1 1015.7
20260906173555 54 212 0.0 0.0 0.00 0.23 0.23 1 1015.6
20260906173056 54 212 0.0 0.0 0.00 0.23 0.23 1 1015.6
20260906172553 54 212 0.0 0.0 0.00 0.23 0.23 1 1015.5
20260906172052 54 212 0.0 0.0 0.00 0.23 0.23 1 1015.6
20260906171549 54 212 0.0 0.0 0.00 0.23 0.23 1 1015.6
20260906171047 54 212 0.0 0.0 0.00 0.23 0.23 1 1015.6
20260906170546 54 212 0.0 0.0 0.00 0.23 0.23 1 1015.6
20260906170045 54 212 0.0 0.0 0.00 0.23 0.23 1 1015.5
20260906165543 54 212 0.0 0.0 0.00 0.23 0.23 1 1015.6
20260906165041 54 212 0.0 0.0 0.00 0.23 0.23 1 1015.5
20260906164540 54 212 0.0 0.0 0.01 0.23 0.23 1 1015.5
20260906164038 54 212 0.0 0.0 0.01 0.23 0.23 1 1015.4
20260906163537 54 212 0.0 0.0 0.01 0.23 0.23 1 1015.5
20260906163049 54 211 0.0 0.0 0.01 0.23 0.23 1 1015.5
20260906162534 54 211 0.0 0.0 0.02 0.23 0.23 1 1015.5
20260906162033 54 209 0.0 0.0 0.03 0.23 0.23 1 1015.4
20260906161532 54 209 0.0 0.0 0.04 0.23 0.23 1 1015.4
20260906161032 54 209 0.0 0.0 0.05 0.23 0.23 1 1015.4
20260906160529 54 209 0.0 0.0 0.07 0.23 0.23 1 1015.4
20260906160028 54 209 0.0 0.0 0.08 0.23 0.23 1 1015.4
20260906155526 54 209 0.0 0.0 0.10 0.23 0.23 1 1015.4
20260906155024 54 209 0.0 0.0 0.10 0.22 0.22 1 1015.3
20260906154523 54 209 0.0 0.0 0.11 0.22 0.22 1 1015.3
20260906154022 54 225 0.0 0.0 0.12 0.22 0.22 1 1015.4
20260906153520 54 225 0.0 0.0 0.14 0.22 0.22 1 1015.3
20260906153019 54 225 0.0 0.0 0.16 0.22 0.22 1 1015.3
20260906152517 54 225 0.0 0.0 0.16 0.21 0.21 1 1015.4
20260906152019 54 225 0.0 0.0 0.16 0.20 0.20 1 1015.3
20260906151514 54 225 0.0 0.0 0.15 0.19 0.19 1 1015.2
20260906151012 54 225 0.0 0.0 0.13 0.17 0.17 1 1015.1
20260906150511 54 225 0.0 0.0 0.12 0.16 0.16 1 1015.0
20260906150013 54 225 0.0 0.0 0.10 0.14 0.14 1 1015.0
20260906145509 54 225 0.0 0.0 0.10 0.13 0.13 1 1015.1
20260906145009 54 225 0.0 0.0 0.09 0.12 0.12 1 1015.1
20260906144506 54 225 0.0 0.0 0.07 0.10 0.10 1 1015.0
20260906144007 54 225 0.0 0.0 0.06 0.09 0.09 1 1014.9
20260906143503 54 225 0.0 0.0 0.06 0.08 0.08 1 1014.9
20260906143001 54 225 0.0 0.0 0.04 0.06 0.06 1 1014.7
20260906142600 54 225 0.0 0.0 0.03 0.05 0.05 1 1014.7
20260906142058 54 225 0.0 0.0 0.02 0.04 0.04 1 1014.5
20260906141600 54 225 0.0 0.0 0.02 0.04 0.04 1 1014.5
20260906141055 54 225 0.0 0.0 0.02 0.04 0.04 1 1014.5
20260906140557 54 225 0.0 0.0 0.02 0.04 0.04 1 1014.4
20260906140103 54 225 0.0 0.0 0.02 0.04 0.04 1 1014.3
20260906135552 54 224 0.0 0.0 0.01 0.03 0.03 1 1014.3
20260906135054 54 225 0.0 0.0 0.01 0.03 0.03 1 1014.2
20260906134602 54 225 0.0 0.0 0.01 0.03 0.03 1 1014.1
20260906134046 54 225 0.0 0.0 0.01 0.03 0.03 1 1014.1
20260906133544 54 225 0.0 0.0 0.00 0.02 0.02 1 1014.0
20260906133044 54 225 0.0 0.0 0.00 0.02 0.02 1 1014.0
20260906132544 54 225 0.0 0.0 0.00 0.02 0.02 1 1014.0
20260906132040 54 225 0.0 0.0 0.00 0.02 0.02 1 1013.8
20260906131539 54 225 0.0 0.0 0.00 0.02 0.02 1 1013.8
20260906131038 54 225 0.0 0.0 0.00 0.02 0.02 1 1014.0
20260906130537 54 225 0.0 0.0 0.00 0.02 0.02 1 1013.7
20260906130034 54 225 0.0 0.0 0.00 0.02 0.02 1 1013.8
20260906125536 54 225 0.0 0.0 0.00 0.02 0.02 1 1013.7
20260906125031 54 225 0.0 0.0 0.00 0.02 0.02 1 1013.9
20260906124530 54 225 0.0 0.0 0.00 0.02 0.02 1 1013.8
20260906124028 54 225 0.0 0.0 0.00 0.02 0.02 1 1013.8
20260906123526 55 225 0.0 0.0 0.00 0.02 0.02 1 1013.8
20260906123032 55 225 0.0 0.0 0.00 0.02 0.02 1 1013.9
20260906122526 55 225 0.0 0.0 0.00 0.02 0.02 1 1013.9
20260906122025 55 225 0.0 0.0 0.00 0.02 0.02 1 1014.1
20260906121527 55 225 0.0 0.0 0.00 0.02 0.02 1 1014.1
20260906121020 55 225 0.0 0.0 0.00 0.02 0.02 1 1013.9
20260906120518 55 225 0.0 0.0 0.00 0.02 0.02 1 1014.0
20260906120016 55 225 0.0 0.0 0.00 0.02 0.02 1 1014.0
20260906115515 55 225 0.0 0.0 0.00 0.02 0.02 1 1014.1
20260906115013 55 225 0.0 0.0 0.00 0.02 0.02 1 1014.2
20260906114532 55 225 0.0 0.0 0.00 0.02 0.02 1 1014.2
20260906114011 55 225 0.0 0.0 0.00 0.02 0.02 1 1014.2
20260906113509 55 225 0.0 0.0 0.00 0.02 0.02 1 1014.2
20260906113008 55 225 0.0 0.0 0.00 0.02 0.02 1 1014.1
20260906112506 55 225 0.0 0.0 0.00 0.02 0.02 1 1014.2
20260906112005 55 225 0.0 0.0 0.00 0.02 0.02 1 1014.1
20260906111503 55 225 0.0 0.0 0.00 0.02 0.02 1 1014.1
20260906111001 55 225 0.0 0.0 0.00 0.02 0.02 1 1014.2
20260906110601 55 225 0.0 0.0 0.00 0.02 0.02 1 1014.1
20260906110058 55 225 0.0 0.0 0.01 0.02 0.02 1 1014.1
20260906105557 55 225 0.0 0.0 0.01 0.02 0.02 1 1014.1
20260906105057 55 225 0.0 0.0 0.01 0.02 0.02 1 1014.2
20260906104554 56 225 0.0 0.0 0.01 0.02 0.02 1 1014.1
20260906104053 56 225 0.0 0.0 0.01 0.02 0.02 1 1014.3
20260906103552 56 225 0.0 0.0 0.01 0.02 0.02 1 1014.2
20260906103051 56 225 0.0 0.0 0.01 0.02 0.02 1 1014.5
20260906102549 56 225 0.0 0.0 0.01 0.02 0.02 1 1014.4
20260906102050 56 225 0.0 0.0 0.01 0.02 0.02 1 1014.5
20260906101546 56 360 0.0 0.0 0.01 0.02 0.02 1 1014.5
20260906101047 56 225 0.0 0.0 0.02 0.02 0.02 1 1014.6
20260906100543 56 225 0.0 0.0 0.02 0.02 0.02 1 1014.6
20260906100041 56 225 0.0 0.0 0.01 0.01 0.01 1 1014.7
20260906095540 56 360 0.0 0.0 0.01 0.01 0.01 1 1014.7
20260906095038 56 225 0.0 0.0 0.01 0.01 0.01 1 1014.6
20260906094546 57 225 0.0 0.0 0.01 0.01 0.01 1 1014.7
20260906094036 57 225 0.0 0.0 0.01 0.01 0.01 1 1014.7
20260906093534 57 225 0.0 0.0 0.01 0.01 0.01 2 1014.7
20260906093033 57 225 0.0 0.0 0.01 0.01 0.01 8 1014.5
20260906092531 57 360 0.0 0.0 0.01 0.01 0.01 9 1014.4
20260906092030 57 225 0.0 0.0 0.01 0.01 0.01 9 1014.3
20260906091534 57 360 0.0 0.0 0.01 0.01 0.01 12 1014.4
20260906091028 57 360 0.0 0.0 0.00 0.00 0.00 12 1014.5
20260906090528 57 360 0.0 0.0 0.00 0.00 0.00 13 1014.4
20260906090027 57 360 0.0 0.0 0.00 0.00 0.00 15 1014.5
20260906085527 57 360 0.0 0.0 0.00 0.00 0.00 17 1014.5
20260906085027 57 360 0.0 0.0 0.00 0.00 0.00 18 1014.4
20260906084532 58 360 0.0 0.0 0.00 0.00 0.00 20 1014.3
20260906084025 58 360 0.0 0.0 0.00 0.00 0.00 22 1014.3
20260906083526 58 360 0.0 0.0 0.00 0.00 0.00 23 1014.5
20260906083024 58 360 0.0 0.0 0.00 0.00 0.00 28 1014.3
20260906082523 58 360 0.0 0.0 0.00 0.00 0.00 32 1014.3
20260906082022 58 360 0.0 0.0 0.00 0.00 0.00 32 1014.3
20260906081528 58 360 0.0 0.0 0.00 0.00 0.00 31 1014.3
20260906081022 58 360 0.0 0.0 0.00 0.00 0.00 32 1014.4
20260906080522 58 360 0.0 0.0 0.00 0.00 0.00 35 1014.4
20260906080021 58 360 0.0 0.0 0.00 0.00 0.00 36 1014.4
20260906075521 58 360 0.0 0.0 0.00 0.00 0.00 38 1014.4
20260906075023 58 360 0.0 0.0 0.00 0.00 0.00 37 1014.3
20260906074521 58 360 0.0 0.0 0.00 0.00 0.00 37 1014.4
20260906074020 58 360 0.0 0.0 0.00 0.00 0.00 36 1014.3
20260906073521 58 360 0.0 0.0 0.00 0.00 0.00 36 1014.4
20260906073022 57 360 0.0 0.0 0.00 0.00 0.00 36 1014.5
20260906072519 57 360 0.0 0.0 0.00 0.00 0.00 36 1014.4
20260906072019 57 360 0.0 0.0 0.00 0.00 0.00 36 1014.5
20260906071518 57 360 0.0 0.0 0.00 0.00 0.00 37 1014.5
20260906071017 57 360 0.0 0.0 0.00 0.00 0.00 37 1014.7
20260906070516 57 360 0.0 0.0 0.00 0.00 0.00 39 1014.6
20260906070016 57 360 0.0 0.0 0.00 0.00 0.00 38 1014.6
20260906065514 57 360 0.0 0.0 0.00 0.00 0.00 38 1014.6
20260906065013 57 360 0.0 0.0 0.00 0.00 0.00 39 1014.6
20260906064521 57 360 0.0 0.0 0.00 0.00 0.00 40 1014.8
20260906064010 57 360 0.0 0.0 0.00 0.00 0.00 43 1014.7
20260906063509 57 360 0.0 0.0 0.00 0.00 0.00 44 1014.6
20260906063007 58 360 0.0 0.0 0.00 0.00 0.00 45 1014.7
20260906062505 58 225 0.0 0.0 0.00 0.00 0.00 47 1014.8
20260906062004 58 225 0.0 0.0 0.00 0.00 0.00 49 1014.8
20260906061503 58 225 0.0 0.0 0.00 0.00 0.00 49 1014.8
20260906061001 58 225 0.0 0.0 0.00 0.00 0.00 50 1014.8
20260906060600 58 225 0.0 0.0 0.00 0.00 0.00 51 1014.8
20260906060147 59 225 0.0 0.0 0.00 0.00 0.00 52 1014.7
20260906055557 59 225 0.0 0.0 0.00 0.00 0.00 53 1014.8
20260906055056 59 225 0.0 0.0 0.00 0.00 0.00 54 1014.8
20260906054554 59 225 0.0 0.0 0.00 0.00 0.00 55 1014.8
20260906054055 59 225 0.0 0.0 0.00 0.00 0.00 56 1014.8
20260906053550 59 225 0.0 0.0 0.00 0.00 0.00 56 1014.7
20260906053049 60 225 0.0 0.0 0.00 0.00 0.00 57 1014.9
20260906052548 60 225 0.0 0.0 0.00 0.00 0.00 58 1014.9
20260906052047 60 225 0.0 0.0 0.00 0.00 0.00 58 1014.9
20260906051545 60 225 0.0 0.0 0.00 0.00 0.00 58 1015.0
20260906051045 60 231 0.0 0.0 0.00 0.00 0.00 59 1015.0
20260906050542 60 230 0.0 0.0 0.00 0.00 0.00 59 1014.9
20260906050041 60 238 0.0 0.0 0.00 0.00 0.00 59 1015.0
20260906045540 60 252 0.0 0.0 0.00 0.00 0.00 59 1015.0
20260906045038 60 252 0.0 0.0 0.00 0.00 0.00 60 1014.9
20260906044536 60 252 0.0 0.0 0.00 0.00 0.00 61 1015.0
20260906044037 60 252 0.0 0.0 0.00 0.00 0.00 60 1015.0
20260906043534 61 252 0.0 0.0 0.00 0.00 0.00 60 1014.9
20260906043038 61 252 0.0 0.0 0.00 0.00 0.00 60 1014.9
20260906042530 61 252 0.0 0.0 0.00 0.00 0.00 61 1015.0
20260906042030 61 252 0.0 0.0 0.00 0.00 0.00 61 1015.0
20260906041531 61 252 0.0 0.0 0.00 0.00 0.00 60 1014.9
20260906041027 61 253 0.0 0.0 0.00 0.00 0.00 62 1014.8
20260906040525 61 253 0.0 0.0 0.00 0.00 0.00 61 1014.9
20260906040033 61 254 0.0 0.0 0.00 0.00 0.00 62 1014.9
20260906035528 61 254 0.0 0.0 0.00 0.00 0.00 63 1014.8
20260906035020 61 260 0.0 0.0 0.00 0.00 0.00 64 1014.8
20260906034527 61 218 0.0 0.0 0.00 0.00 0.00 65 1014.8
20260906034018 61 218 0.0 0.0 0.00 0.00 0.00 65 1014.7
20260906033518 61 218 0.0 0.0 0.00 0.00 0.00 65 1014.7
20260906033018 62 218 0.0 0.0 0.00 0.00 0.00 65 1014.5
20260906032515 62 218 0.0 0.0 0.00 0.00 0.00 65 1014.5
20260906032017 63 218 0.0 0.0 0.00 0.00 0.00 65 1014.5
20260906031519 63 218 0.0 0.0 0.00 0.00 0.00 65 1014.4
20260906031011 64 218 0.0 0.0 0.00 0.00 0.00 64 1014.3
20260906030510 64 276 0.0 0.0 0.00 0.00 0.00 63 1014.4
20260906030008 65 276 0.0 0.0 0.00 0.00 0.00 62 1014.3
20260906025510 65 276 0.0 0.0 0.00 0.00 0.00 61 1014.3
20260906025005 66 276 0.0 0.0 0.00 0.00 0.00 61 1014.3
20260906024504 66 276 0.0 0.0 0.00 0.00 0.00 60 1014.3
20260906024002 67 276 0.0 0.0 0.00 0.00 0.00 60 1014.3
20260906023501 67 276 0.0 0.0 0.00 0.00 0.00 60 1014.3
20260906023111 67 276 0.0 0.0 0.00 0.00 0.00 59 1014.3
20260906022602 67 276 0.0 0.0 0.00 0.00 0.00 59 1014.4
20260906022057 68 276 0.0 0.0 0.00 0.00 0.00 59 1014.3
20260906021556 68 276 0.0 0.0 0.00 0.00 0.00 58 1014.3
20260906021053 68 276 0.0 0.0 0.00 0.00 0.00 58 1014.3
20260906020552 69 276 0.0 0.0 0.00 0.00 0.00 57 1014.2
20260906020057 69 277 0.0 0.0 0.00 0.00 0.00 57 1014.2
20260906015549 69 277 0.0 0.0 0.00 0.00 0.00 57 1014.3
20260906015049 69 277 0.0 0.0 0.00 0.00 0.00 57 1014.2
20260906014548 69 277 0.0 0.0 0.00 0.00 0.00 58 1014.3
20260906014046 69 277 0.0 0.0 0.00 0.00 0.00 59 1014.3
20260906013545 69 277 0.0 0.0 0.00 0.00 0.00 59 1014.3
20260906013045 68 277 0.0 0.0 0.00 0.00 0.00 59 1014.4
20260906012545 68 277 0.0 0.0 0.00 0.00 0.00 59 1014.5
20260906012045 68 277 0.0 0.0 0.00 0.00 0.00 59 1014.5
20260906011547 68 279 0.0 0.0 0.00 0.00 0.00 59 1014.4
20260906011044 68 223 0.0 0.0 0.00 0.00 0.00 60 1014.4
20260906010544 68 257 0.0 0.0 0.00 0.00 0.00 61 1014.5
20260906010044 67 213 0.0 0.0 0.00 0.00 0.00 61 1014.6
20260906005544 67 202 0.0 0.0 0.00 0.00 0.00 63 1014.6
20260906005044 66 232 0.0 0.0 0.00 0.00 0.00 62 1014.7
20260906004550 66 263 0.0 0.0 0.00 0.00 0.00 62 1014.6
20260906004044 66 158 0.0 0.0 0.00 0.00 0.00 64 1014.7
20260906003544 66 159 0.0 0.0 0.00 0.00 0.00 63 1014.8
20260906003049 66 201 0.0 0.0 0.00 0.00 0.00 63 1014.9
20260906002543 66 198 0.0 0.0 0.00 0.00 0.00 61 1014.9
20260906002044 67 179 0.0 0.0 0.00 0.00 0.00 60 1014.8
20260906001545 67 198 0.0 0.0 0.00 0.00 0.00 58 1014.8
20260906001040 67 238 0.0 0.0 0.00 0.00 0.00 58 1014.8
20260906000539 68 190 0.0 0.0 0.00 0.00 0.00 57 1014.8
20260906000038 68 250 0.0 0.0 0.00 0.00 0.00 55 1014.7
20260905235539 68 256 0.0 0.0 0.00 0.00 0.00 55 1014.8
20260905235034 68 248 0.0 0.0 0.00 0.00 0.00 54 1014.7
20260905234534 69 285 0.0 0.0 0.00 0.00 0.00 54 1014.6
20260905234032 69 279 0.0 0.0 0.00 0.00 0.00 54 1014.7
20260905233531 69 290 0.0 0.0 0.00 0.00 0.00 53 1014.6
20260905233032 69 286 0.0 0.0 0.00 0.00 0.00 53 1014.4
20260905232528 70 291 0.0 0.0 0.00 0.00 0.00 53 1014.6
20260905232029 70 285 0.0 0.0 0.00 0.00 0.00 52 1014.6
20260905231533 71 274 0.0 0.0 0.00 0.00 0.00 51 1014.6
20260905231026 72 306 0.0 0.0 0.00 0.00 0.00 49 1014.5
20260905230521 73 298 0.0 0.0 0.00 0.00 0.00 47 1014.6
20260905230020 74 288 0.0 0.0 0.00 0.00 0.00 45 1014.6
20260905225519 75 269 0.0 0.0 0.00 0.00 0.00 44 1014.5
20260905225017 76 281 0.0 0.0 0.00 0.00 0.00 44 1014.4
20260905224521 77 279 0.0 0.0 0.00 0.00 0.00 42 1014.4
20260905224023 78 263 0.0 0.0 0.00 0.00 0.00 40 1014.4
20260905223512 78 355 0.0 0.0 0.00 0.00 0.00 39 1014.4
20260905223011 78 333 0.0 0.0 0.00 0.00 0.00 38 1014.4
20260905222510 77 78 0.0 0.0 0.00 0.00 0.00 38 1014.4
20260905222008 77 96 0.0 0.0 0.00 0.00 0.00 39 1014.4
20260905221506 76 321 0.0 0.0 0.00 0.00 0.00 39 1014.5
20260905221005 76 48 0.0 0.0 0.00 0.00 0.00 41 1014.6
20260905220506 75 305 0.0 0.0 0.00 0.00 0.00 43 1014.6
20260905220002 75 329 0.0 0.0 0.00 0.00 0.00 46 1014.6
20260905215601 75 330 0.0 0.0 0.00 0.00 0.00 42 1014.6
20260905215101 75 142 0.0 0.0 0.00 0.00 0.00 40 1014.8
20260905214606 74 144 0.0 0.0 0.00 0.00 0.00 39 1014.7
20260905214057 73 223 0.0 0.0 0.00 0.00 0.00 42 1014.7
20260905213554 73 165 0.0 0.0 0.00 0.00 0.00 43 1014.8
20260905213055 73 154 0.0 0.0 0.00 0.00 0.00 44 1014.8
20260905212556 73 168 0.0 0.0 0.00 0.00 0.00 43 1014.9
20260905212050 73 185 0.0 0.0 0.00 0.00 0.00 43 1014.9
20260905211550 73 198 0.0 0.0 0.00 0.00 0.00 42 1015.0
20260905211047 73 280 0.0 0.0 0.00 0.00 0.00 43 1014.9
20260905210547 73 279 0.0 0.0 0.00 0.00 0.00 43 1014.9
20260905210053 73 122 0.0 0.0 0.00 0.00 0.00 45 1015.1
20260905205544 73 103 0.0 0.0 0.00 0.01 0.00 44 1015.1
20260905205042 74 61 0.0 0.0 0.00 0.01 0.00 43 1015.1
20260905204543 74 61 0.0 0.0 0.00 0.01 0.00 43 1015.1
20260905204039 74 34 0.0 0.0 0.00 0.01 0.00 43 1015.1